Tracking 29493 objects as of 8-Sep-2024
HD Live streaming from Space Station
objects crossing your sky now

STARLINK-5375

Track STARLINK-5375 now!
10-day predictions
STARLINK-5375 is classified as:


NORAD ID: 56140
Int'l Code: 2023-046BA
Perigee: 565.2 km
Apogee: 567.2 km
Inclination: 43.0 °
Period: 95.8 minutes
Semi major axis: 6937 km
RCS: Unknown
Launch date: March 29, 2023
Source: United States (US)
Launch site: AIR FORCE EASTERN TEST RANGE (AFETR)
Your satellite tracking list
Your tracking list is empty




NASA's NSSDC Master Catalog

Two Line Element Set (TLE):
1 56140U 23046BA  24252.04916951  .00000674  00000-0  64938-4 0  9992
2 56140  43.0033 241.6087 0001405 271.1855  88.8826 15.02535254 80378
Source of the keplerian elements: AFSPC